Location: LDNL
(36.4545°S, 141.6685°E)
Time: 06:23:57
(UTC+11:00)

Courier 1B - Visible Passes

Search period start: 26 January 2022 00:00
Search period end: 05 February 2022 00:00
Orbit: 962 x 1209 km, 28.3° (Epoch: 25 January)

Date Brightness Start Highest point End Pass type
(mag) Time Alt. Az. Time Alt. Az. Time Alt. Az.
29 Jan 9.6 05:33:57 10° N 05:37:02 13° NNE 05:40:05 10° NE visible
31 Jan 9.1 05:38:24 11° NNW 05:43:06 22° NNE 05:48:02 10° ENE visible
01 Feb 9.2 04:47:55 16° N 04:49:29 18° NNE 04:53:49 10° ENE visible
02 Feb 9.6 03:57:25 13° NE 03:57:25 13° NE 03:59:11 10° NE visible
02 Feb 8.7 05:44:18 14° NW 05:49:14 31° NNE 05:55:00 10° ENE visible
03 Feb 8.8 04:53:47 24° N 04:55:33 26° NNE 05:01:09 10° ENE visible
04 Feb 9.2 04:03:14 21° NE 04:03:14 21° NE 04:07:08 10° ENE visible
04 Feb 8.4 05:50:07 15° NW 05:55:24 39° N 06:01:37 10° ENE visible
